Location: Agenbach
(47.2667°N, 11.4500°E)
Time: 17:46:02
(UTC+00:00)

USA 229 - Pass Details

Date: 07 June 2020
Orbit: 980 x 1233 km, 63.4° (Epoch: 24 June)

Event Time Altitude Azimuth Distance (km) Brightness Sun altitude
Rises 01:07:08 0° 318° (NW) 3,954 7.0 -15.4°
Reaches altitude 10° 01:09:46 10° 317° (NW) 3,027 6.3 -15.2°
Maximum altitude 01:16:59 69° 236° (SW) 1,257 3.9 -14.6°
Drops below altitude 10° 01:24:33 10° 155° (SSE) 3,161 5.8 -14.0°
Sets 01:27:21 0° 153° (SSE) 4,138 6.5 -13.7°
